Location: Newark
(13.3167°N, 169.1500°W)
Time: 20:17:35
(UTC+00:00)

N. Korean satellite - Visible Passes

Search period start: 23 October 2019 00:00
Search period end: 02 November 2019 00:00
Orbit: 455 x 508 km, 97.2° (Epoch: 22 October)

Date Brightness Start Highest point End Pass type
(mag) Time Alt. Az. Time Alt. Az. Time Alt. Az.
23 Oct 9.8 16:16:04 10° NE 16:18:45 19° E 16:21:26 10° SE visible
25 Oct 9.6 05:18:21 10° SSW 05:20:57 20° W 05:23:34 10° NW visible
26 Oct 8.5 16:32:46 10° NNE 16:36:12 36° E 16:39:38 10° SSE visible
27 Oct 10.1 16:08:45 10° ENE 16:10:54 15° E 16:13:02 10° SE visible
28 Oct 10.5 05:37:32 10° WSW 05:38:22 11° W 05:39:12 10° W visible
29 Oct 9.1 05:10:05 10° SSW 05:13:01 27° W 05:16:00 10° NW visible
30 Oct 9.1 16:25:08 10° NE 16:28:19 27° E 16:31:30 10° SSE visible
31 Oct 10.4 16:01:50 10° E 16:03:00 11° E 16:04:10 10° ESE visible
01 Nov 10.0 05:28:29 10° SW 05:30:25 14° W 05:32:22 10° WNW visible
